Precipitable_Water
0.62 0.61 0.60 0.58 0.56 0.53 0.50 0.47 0.44 0.44 0.44 0.41 0.38 0.37 0.36 0.33 0.30 0.30 0.28 0.23 0.24 0.30 0.17 0.20 0.29 0.25 0.17 0.14 0.11 0.17 0.21 0.21 0.22 0.21 0.17 0.15 0.14 0.15 0.16 0.20 0.25 0.33 0.36 0.41 0.48 0.55 0.59
0.63 0.60 0.59 0.58 0.55 0.52 0.50 0.47 0.45 0.46 0.45 0.42 0.38 0.36 0.35 0.32 0.30 0.28 0.24 0.23 0.21 0.22 0.17 0.19 0.26 0.30 0.10 0.07 0.16 0.19 0.21 0.22 0.23 0.23 0.21 0.18 0.14 0.15 0.15 0.17 0.19 0.22 0.32 0.35 0.43 0.45 0.56
0.65 0.62 0.59 0.58 0.55 0.51 0.50 0.48 0.47 0.46 0.43 0.40 0.37 0.36 0.33 0.31 0.30 0.28 0.25 0.21 0.20 0.19 0.15 0.18 0.18 0.14 0.09 0.10 0.18 0.21 0.23 0.24 0.26 0.25 0.22 0.25 0.19 0.16 0.15 0.15 0.20 0.24 0.21 0.30 0.34 0.39 0.45
0.66 0.64 0.61 0.59 0.57 0.53 0.50 0.48 0.47 0.46 0.43 0.40 0.36 0.35 0.32 0.30 0.30 0.27 0.24 0.25 0.21 0.23 0.22 0.15 0.17 0.17 0.08 0.16 0.20 0.20 0.23 0.24 0.29 0.32 0.30 0.29 0.22 0.15 0.15 0.17 0.18 0.16 0.17 0.17 0.27 0.38 0.44
0.65 0.63 0.62 0.60 0.58 0.55 0.52 0.49 0.47 0.46 0.44 0.42 0.37 0.35 0.31 0.28 0.28 0.28 0.25 0.24 0.23 0.23 0.21 0.18 0.10 0.12 0.08 0.16 0.15 0.19 0.23 0.22 0.28 0.32 0.34 0.29 0.22 0.17 0.15 0.13 0.12 0.14 0.10 0.14 0.19 0.32 0.36
0.63 0.62 0.61 0.60 0.58 0.55 0.53 0.51 0.49 0.46 0.44 0.41 0.39 0.35 0.31 0.29 0.25 0.27 0.24 0.26 0.26 0.24 0.15 0.15 0.12 0.08 0.09 0.11 0.16 0.19 0.24 0.27 0.26 0.29 0.29 0.25 0.24 0.19 0.16 0.18 0.10 0.09 0.13 0.16 0.20 0.27 0.35
0.63 0.62 0.60 0.59 0.59 0.57 0.55 0.52 0.48 0.46 0.43 0.42 0.40 0.36 0.31 0.29 0.25 0.26 0.26 0.27 0.21 0.22 0.15 0.10 0.10 0.10 0.12 0.14 0.17 0.17 0.21 0.24 0.26 0.24 0.22 0.22 0.22 0.18 0.20 0.24 0.23 0.20 0.19 0.17 0.21 0.28 0.28
0.66 0.63 0.61 0.59 0.58 0.58 0.56 0.54 0.51 0.47 0.43 0.41 0.39 0.36 0.31 0.29 0.25 0.25 0.22 0.20 0.21 0.23 0.15 0.14 0.12 0.11 0.13 0.14 0.11 0.14 0.20 0.18 0.20 0.18 0.25 0.23 0.17 0.20 0.22 0.20 0.19 0.18 0.15 0.14 0.22 0.30 0.33
0.72 0.69 0.64 0.62 0.59 0.58 0.58 0.57 0.54 0.49 0.44 0.41 0.39 0.35 0.30 0.29 0.29 0.25 0.21 0.22 0.32 0.31 0.18 0.11 0.11 0.12 0.12 0.12 0.11 0.13 0.18 0.19 0.19 0.18 0.20 0.17 0.21 0.25 0.21 0.17 0.13 0.13 0.12 0.14 0.21 0.26 0.28
0.74 0.73 0.69 0.64 0.63 0.61 0.60 0.57 0.54 0.50 0.45 0.42 0.40 0.34 0.28 0.30 0.27 0.22 0.21 0.26 0.30 0.34 0.14 0.08 0.09 0.12 0.13 0.11 0.09 0.16 0.18 0.20 0.20 0.17 0.20 0.19 0.23 0.21 0.20 0.19 0.17 0.10 0.19 0.17 0.22 0.22 0.19
0.74 0.76 0.73 0.68 0.64 0.61 0.58 0.57 0.56 0.53 0.48 0.42 0.38 0.35 0.30 0.29 0.24 0.20 0.22 0.26 0.31 0.27 0.07 0.09 0.10 0.15 0.15 0.10 0.11 0.12 0.17 0.19 0.17 0.18 0.20 0.19 0.21 0.19 0.17 0.17 0.19 0.15 0.22 0.19 0.22 0.23 0.22
0.75 0.75 0.74 0.70 0.67 0.63 0.59 0.57 0.56 0.54 0.49 0.42 0.38 0.35 0.29 0.26 0.28 0.26 0.27 0.28 0.28 0.13 0.08 0.09 0.10 0.11 0.12 0.10 0.10 0.11 0.12 0.17 0.20 0.18 0.19 0.22 0.25 0.24 0.22 0.24 0.26 0.26 0.19 0.20 0.21 0.22 0.16
0.76 0.75 0.74 0.74 0.70 0.66 0.62 0.57 0.55 0.55 0.50 0.42 0.37 0.34 0.30 0.28 0.21 0.29 0.30 0.26 0.13 0.10 0.12 0.10 0.10 0.12 0.11 0.08 0.09 0.09 0.08 0.10 0.12 0.12 0.13 0.17 0.20 0.23 0.24 0.23 0.27 0.24 0.18 0.12 0.11 0.13 0.12
0.76 0.76 0.78 0.78 0.73 0.68 0.63 0.58 0.55 0.54 0.52 0.43 0.36 0.30 0.32 0.27 0.28 0.32 0.29 0.20 0.11 0.13 0.13 0.14 0.14 0.12 0.09 0.09 0.09 0.09 0.07 0.07 0.12 0.15 0.15 0.12 0.11 0.18 0.23 0.23 0.21 0.22 0.21 0.15 0.09 0.08 0.12
0.76 0.77 0.79 0.78 0.75 0.69 0.64 0.59 0.54 0.53 0.52 0.44 0.36 0.32 0.30 0.26 0.29 0.32 0.24 0.15 0.13 0.15 0.17 0.16 0.15 0.11 0.10 0.09 0.10 0.09 0.08 0.07 0.10 0.14 0.13 0.14 0.12 0.20 0.22 0.24 0.24 0.22 0.19 0.23 0.19 0.17 0.12
0.78 0.82 0.85 0.80 0.75 0.72 0.68 0.61 0.53 0.52 0.53 0.46 0.36 0.31 0.30 0.29 0.30 0.29 0.21 0.16 0.18 0.20 0.20 0.19 0.13 0.14 0.11 0.10 0.09 0.09 0.08 0.10 0.08 0.12 0.17 0.18 0.13 0.17 0.20 0.23 0.22 0.22 0.26 0.17 0.18 0.13 0.12
0.80 0.83 0.85 0.82 0.78 0.77 0.70 0.63 0.58 0.54 0.51 0.48 0.39 0.33 0.30 0.32 0.32 0.24 0.18 0.18 0.21 0.23 0.23 0.20 0.17 0.15 0.13 0.12 0.11 0.10 0.08 0.10 0.10 0.10 0.14 0.16 0.17 0.14 0.17 0.17 0.17 0.17 0.18 0.22 0.21 0.20 0.15
0.79 0.84 0.86 0.82 0.78 0.73 0.68 0.62 0.58 0.58 0.52 0.49 0.39 0.31 0.32 0.36 0.26 0.23 0.19 0.21 0.23 0.23 0.25 0.23 0.23 0.19 0.16 0.15 0.12 0.11 0.09 0.10 0.13 0.12 0.09 0.13 0.14 0.12 0.13 0.19 0.21 0.19 0.18 0.21 0.17 0.14 0.17
0.78 0.83 0.88 0.89 0.89 0.81 0.68 0.60 0.61 0.58 0.56 0.48 0.38 0.36 0.39 0.38 0.24 0.24 0.25 0.24 0.24 0.23 0.22 0.21 0.21 0.22 0.22 0.17 0.13 0.12 0.11 0.14 0.13 0.12 0.11 0.12 0.08 0.08 0.10 0.14 0.17 0.16 0.17 0.18 0.20 0.21 0.14
0.77 0.82 0.89 0.91 0.90 0.87 0.82 0.67 0.60 0.58 0.55 0.52 0.44 0.37 0.39 0.40 0.34 0.27 0.25 0.24 0.23 0.27 0.24 0.23 0.22 0.24 0.22 0.19 0.18 0.13 0.12 0.13 0.14 0.14 0.14 0.14 0.10 0.07 0.06 0.10 0.13 0.12 0.14 0.16 0.16 0.13 0.13
0.81 0.83 0.89 0.90 0.92 0.90 0.87 0.84 0.70 0.58 0.56 0.58 0.46 0.42 0.41 0.36 0.35 0.33 0.32 0.29 0.25 0.23 0.27 0.26 0.23 0.22 0.22 0.19 0.18 0.16 0.15 0.13 0.15 0.15 0.13 0.11 0.08 0.08 0.08 0.08 0.10 0.10 0.10 0.13 0.13 0.15 0.12
0.86 0.91 0.93 0.94 0.93 0.92 0.90 0.90 0.82 0.63 0.57 0.50 0.43 0.44 0.49 0.43 0.40 0.37 0.36 0.34 0.29 0.27 0.25 0.26 0.23 0.23 0.22 0.21 0.20 0.18 0.18 0.16 0.14 0.14 0.12 0.13 0.08 0.09 0.08 0.08 0.08 0.08 0.09 0.09 0.12 0.14 0.15
0.89 0.95 0.98 0.98 0.96 0.93 0.92 0.93 0.90 0.78 0.58 0.49 0.52 0.55 0.47 0.46 0.43 0.40 0.38 0.35 0.35 0.33 0.29 0.28 0.27 0.25 0.22 0.23 0.26 0.26 0.24 0.22 0.19 0.16 0.14 0.12 0.09 0.08 0.06 0.08 0.08 0.06 0.07 0.07 0.08 0.12 0.14
0.93 1.03 1.05 1.04 0.98 0.94 0.93 0.93 0.91 0.86 0.70 0.53 0.52 0.51 0.47 0.43 0.45 0.43 0.43 0.42 0.39 0.37 0.32 0.31 0.30 0.27 0.28 0.29 0.30 0.29 0.26 0.23 0.20 0.19 0.19 0.14 0.11 0.11 0.07 0.08 0.05 0.07 0.09 0.09 0.08 0.10 0.14
0.98 1.07 1.11 1.11 1.02 0.96 0.94 0.94 0.93 0.90 0.80 0.62 0.58 0.52 0.49 0.45 0.51 0.49 0.46 0.44 0.44 0.42 0.38 0.33 0.32 0.33 0.33 0.27 0.24 0.22 0.22 0.21 0.21 0.21 0.21 0.19 0.14 0.10 0.08 0.07 0.08 0.09 0.09 0.07 0.07 0.08 0.14
1.06 1.13 1.14 1.13 1.08 1.01 0.96 0.94 0.94 0.93 0.87 0.73 0.61 0.61 0.55 0.48 0.50 0.53 0.46 0.47 0.42 0.40 0.38 0.36 0.35 0.34 0.32 0.26 0.23 0.20 0.18 0.19 0.19 0.19 0.23 0.21 0.17 0.12 0.11 0.08 0.06 0.10 0.11 0.12 0.13 0.08 0.14
1.09 1.14 1.14 1.15 1.10 1.04 0.96 0.94 0.95 0.94 0.92 0.83 0.68 0.66 0.57 0.47 0.56 0.54 0.49 0.48 0.48 0.44 0.39 0.36 0.34 0.32 0.31 0.26 0.22 0.20 0.19 0.22 0.18 0.19 0.18 0.19 0.18 0.13 0.12 0.10 0.10 0.13 0.12 0.14 0.08 0.08 0.11
1.08 1.11 1.15 1.16 1.11 1.06 1.02 0.97 0.96 0.95 0.95 0.87 0.75 0.73 0.57 0.50 0.57 0.60 0.58 0.52 0.50 0.47 0.39 0.40 0.34 0.33 0.30 0.25 0.23 0.23 0.20 0.21 0.20 0.21 0.20 0.18 0.17 0.15 0.14 0.11 0.08 0.16 0.13 0.09 0.11 0.13 0.12
1.07 1.10 1.13 1.15 1.13 1.12 1.08 1.03 0.99 0.98 0.96 0.94 0.75 0.80 0.69 0.55 0.54 0.68 0.63 0.64 0.59 0.56 0.46 0.43 0.37 0.34 0.34 0.29 0.29 0.26 0.23 0.23 0.21 0.18 0.23 0.19 0.20 0.19 0.17 0.14 0.18 0.17 0.14 0.14 0.15 0.13 0.13
Wind_Speed
21 21 20 21 21 21 21 22 23 24 26 27 27 27 27 26 26 26 28 31 31 32 42 46 43 43 44 39 41 41 36 33 30 28 27 29 30 32 34 35 38 43 43 45 46 44 47
20 21 21 21 21 21 21 22 23 25 26 27 29 28 27 27 26 26 27 31 32 34 41 47 44 44 45 41 43 38 33 31 29 28 26 27 28 30 35 35 36 39 43 43 47 49 46
20 20 20 21 22 22 22 22 23 25 27 28 29 29 27 27 27 26 28 29 30 35 41 45 47 43 44 44 43 36 34 30 28 25 23 22 24 26 27 31 32 33 40 41 44 49 47
20 20 21 21 22 22 22 22 23 25 27 29 30 30 28 27 28 27 27 28 28 35 42 42 51 40 42 47 42 35 33 31 25 23 19 16 16 21 25 29 32 31 34 36 36 40 46
20 20 20 21 22 23 23 23 23 25 27 28 30 31 30 27 30 28 29 28 26 33 44 39 51 40 44 47 41 37 35 29 24 22 16 9 8 13 16 22 24 26 28 33 36 38 41
20 20 20 21 22 23 24 24 24 25 27 28 29 31 31 27 31 29 29 29 26 30 40 38 48 41 49 50 42 39 37 26 24 19 13 8 4 5 9 14 17 21 24 27 28 30 41
20 20 20 21 22 23 24 24 25 25 26 28 29 31 31 28 31 29 29 28 26 27 37 40 43 45 46 45 38 41 38 26 24 18 16 10 8 8 8 9 13 18 21 23 25 27 30
20 21 21 21 22 23 24 25 26 25 25 27 29 30 30 28 30 30 30 29 27 27 31 38 42 44 47 45 41 42 40 27 24 22 20 12 13 14 11 11 13 16 18 20 22 20 27
23 22 21 22 23 24 25 26 26 26 25 26 28 28 30 29 28 28 29 31 28 25 28 35 42 44 49 46 40 43 43 30 25 23 20 16 18 13 11 9 10 14 17 20 18 18 21
24 23 22 22 24 25 26 27 27 27 26 25 26 27 29 28 26 29 27 31 29 25 26 37 40 41 45 46 39 40 43 28 24 22 20 16 21 16 12 5 2 8 9 19 18 14 13
23 24 23 23 24 26 27 28 28 27 26 24 24 26 28 28 26 28 28 28 29 25 26 36 36 38 46 44 40 41 43 29 26 23 19 17 19 17 16 9 4 4 6 15 17 14 11
23 24 24 24 25 26 28 28 29 28 27 22 22 24 27 27 26 28 29 26 28 25 23 31 34 38 43 43 41 37 41 39 29 22 22 14 20 14 18 12 7 4 4 12 17 13 10
22 24 25 25 25 26 27 29 29 29 27 22 20 24 26 26 27 28 27 25 25 28 30 32 34 37 38 41 40 42 42 42 37 27 24 17 18 17 23 14 9 8 4 6 14 14 14
22 24 25 26 26 26 27 28 29 29 27 22 19 20 24 25 26 27 26 25 27 27 28 32 31 37 33 40 36 40 38 36 36 32 20 20 16 21 20 15 13 8 4 3 9 16 15
22 24 26 27 26 26 27 27 29 29 28 23 19 18 23 25 25 26 25 26 25 27 29 31 33 31 31 36 35 37 39 36 33 36 25 22 16 17 19 12 16 10 7 2 3 8 11
21 24 26 26 26 26 27 28 29 30 29 23 17 17 22 24 24 23 24 23 24 26 29 29 31 31 30 34 34 36 38 35 35 34 28 22 17 16 17 16 15 10 10 4 4 4 9
20 23 25 25 26 27 27 28 29 30 30 22 16 16 20 23 22 23 23 23 24 26 28 28 30 29 29 31 30 30 32 30 36 35 27 24 18 17 17 19 16 13 10 6 4 5 2
19 22 24 25 27 28 28 28 29 30 30 23 16 16 19 22 21 22 22 23 23 25 25 26 27 29 29 29 27 28 29 29 34 35 30 24 19 16 14 13 18 16 9 7 5 3 5
18 21 23 24 26 28 28 28 29 29 28 23 17 16 18 21 19 21 20 21 22 23 25 26 26 27 28 27 27 27 27 27 31 32 30 27 23 18 17 14 15 13 15 8 2 1 1
17 20 22 24 25 27 28 29 29 28 26 22 18 16 17 20 19 20 22 22 22 22 23 24 24 26 29 27 24 25 26 25 28 29 31 25 22 20 14 11 13 14 15 12 7 2 5
16 18 21 23 25 26 28 29 30 29 26 21 21 17 18 19 19 21 20 21 22 22 21 23 23 24 26 26 26 24 25 25 24 27 27 25 22 22 18 16 13 13 13 12 9 6 2
16 18 20 22 24 26 26 29 30 29 25 20 19 19 20 19 20 20 19 20 22 22 20 21 22 25 23 23 23 25 24 22 21 24 25 25 21 22 19 16 14 13 13 13 8 8 6
15 18 20 22 24 25 26 28 30 29 25 20 20 19 19 20 20 21 21 21 22 22 20 21 23 24 22 23 25 24 22 21 20 21 22 22 23 22 19 21 18 17 13 13 11 7 7
16 18 20 23 23 24 26 27 28 28 25 21 20 19 19 20 20 20 20 21 22 22 20 22 22 21 23 25 26 23 20 21 19 19 19 21 21 19 17 21 18 15 15 15 12 10 8
17 19 20 22 22 23 25 27 28 26 24 22 21 20 20 20 20 21 21 22 23 21 21 21 21 21 25 25 24 23 21 21 19 19 19 19 20 19 18 17 16 18 15 17 15 15 9
18 19 21 22 23 24 24 26 27 26 24 22 21 21 21 21 19 22 19 24 23 23 20 20 21 23 23 22 22 21 21 22 21 21 21 19 19 17 19 17 14 15 16 18 17 15 12
19 20 21 22 23 24 22 25 26 26 23 22 21 22 21 21 21 21 19 24 23 22 21 21 22 22 22 22 21 20 21 20 21 21 21 20 18 15 17 16 17 14 14 16 17 16 16
21 21 21 23 24 23 23 24 25 25 24 22 22 21 22 22 21 21 21 23 24 21 20 22 23 21 22 22 21 21 20 21 21 21 20 19 18 17 17 17 17 13 15 14 16 18 18
21 22 22 23 23 23 23 23 25 25 24 23 22 23 23 23 24 20 23 25 23 21 20 20 20 22 21 21 22 23 23 21 21 22 21 21 18 18 15 17 18 16 17 18 18 18 19
Wind_Direction
24 24 23 23 22 21 20 18 17 14 12 10 9 7 5 4 3 3 3 1 358 356 357 356 354 351 347 344 336 330 323 318 311 301 288 274 261 253 247 241 237 236 236 238 238 236 235
23 24 24 22 22 20 18 17 15 13 10 9 7 5 5 4 3 3 2 1 2 2 358 359 355 351 354 351 342 337 332 326 318 308 294 275 260 253 247 243 240 236 236 239 235 235 234
23 23 22 20 19 17 15 14 12 11 10 8 6 5 4 4 2 0 359 359 2 2 359 359 358 357 357 355 349 344 339 334 327 317 301 285 259 251 246 242 239 237 237 237 233 231 226
22 21 18 17 15 14 13 11 9 8 8 7 7 6 4 3 1 358 355 355 357 359 359 357 359 357 0 357 353 350 346 341 339 334 316 298 259 251 245 240 242 244 238 230 227 223 223
18 17 16 15 13 12 10 8 7 6 5 5 5 5 3 2 1 358 357 352 353 357 357 359 3 3 4 357 358 355 351 346 345 345 349 321 273 256 247 234 235 233 234 237 233 227 223
14 13 12 11 10 9 8 6 4 2 3 3 3 3 3 2 1 360 359 358 356 356 2 2 4 5 2 1 359 358 358 353 350 353 2 358 330 284 243 226 228 227 228 229 230 230 224
11 9 7 6 6 5 4 2 1 360 360 1 1 2 2 2 2 2 360 1 2 1 5 9 6 8 2 1 5 4 2 2 3 7 8 13 11 358 294 250 243 239 231 229 231 228 230
7 5 4 3 2 2 0 359 358 357 357 359 0 1 2 2 4 6 7 6 5 1 3 9 10 9 6 4 7 9 7 11 9 11 11 7 359 333 306 276 252 239 235 230 227 225 222
8 5 3 2 0 359 358 357 356 356 355 356 359 0 1 2 4 6 10 8 4 3 5 8 9 9 7 8 11 9 10 8 12 8 10 19 358 346 332 295 255 237 227 224 230 239 232
9 7 5 3 2 0 359 359 357 356 354 354 358 1 3 4 5 5 5 6 6 5 6 8 8 10 7 13 13 11 12 16 15 8 13 13 7 5 358 33 337 235 229 220 225 216 215
8 9 8 5 4 3 1 360 358 356 355 355 0 2 4 7 5 8 3 6 7 9 14 2 7 8 7 17 10 16 17 20 17 14 21 25 19 28 29 16 353 227 252 219 216 207 228
5 5 4 3 2 1 1 360 359 358 358 357 1 3 4 6 7 7 7 7 10 14 11 7 6 6 9 16 17 16 20 24 26 22 23 41 29 34 15 8 32 350 250 210 204 199 209
2 2 1 0 358 359 359 359 359 359 358 357 358 3 5 6 6 5 8 9 11 21 7 5 6 6 8 13 16 18 21 27 28 23 22 20 29 25 20 20 24 9 149 173 190 200 203
360 0 360 358 357 357 358 359 360 360 359 357 356 359 5 6 6 8 9 12 22 14 11 8 6 3 15 16 17 16 20 25 27 24 22 20 19 20 17 38 20 44 71 115 195 200 206
358 359 359 359 359 358 359 0 360 359 359 357 357 0 5 5 7 9 12 17 18 13 10 7 4 14 13 16 15 17 20 24 24 22 26 22 21 19 26 31 30 25 44 147 143 197 183
357 359 1 2 3 2 1 1 0 360 359 358 360 1 6 4 7 10 16 21 16 13 10 11 13 14 11 10 15 17 19 24 20 19 21 21 20 25 32 28 30 41 29 82 176 134 170
357 359 1 3 2 2 0 0 0 0 360 359 0 1 2 4 9 14 16 17 12 13 12 12 12 11 12 10 11 14 17 21 20 17 22 23 30 18 31 29 33 31 39 40 155 167 166
354 356 359 1 1 0 359 359 359 1 2 3 1 2 360 4 9 11 13 10 9 9 11 11 11 12 12 9 11 13 14 18 18 18 21 22 25 23 32 31 36 45 33 34 58 212 213
350 354 358 358 360 0 0 360 359 360 2 3 1 359 0 5 7 8 8 6 5 5 8 9 9 13 10 10 11 12 12 13 17 20 21 20 24 21 21 28 26 35 23 18 19 83 298
343 350 354 357 358 359 360 360 358 358 360 2 2 0 0 5 5 2 2 4 1 4 3 6 6 5 7 8 11 7 7 12 11 17 19 21 23 29 27 15 12 8 15 18 12 12 301
337 343 349 353 355 356 358 358 358 357 358 360 5 3 360 354 0 359 360 360 356 359 0 2 2 3 9 6 6 7 8 5 10 13 17 23 21 20 12 7 5 357 9 6 13 339 340
327 336 342 348 351 354 356 358 358 357 356 1 359 360 357 354 353 352 356 355 355 355 356 358 358 358 3 2 3 0 6 6 8 7 12 15 15 15 17 15 14 6 9 359 354 345 334
318 329 335 340 344 347 349 352 355 356 356 354 355 354 354 353 352 352 353 352 352 355 350 351 353 355 356 352 353 352 354 353 354 3 6 10 11 13 12 17 16 13 9 7 351 322 318
311 322 329 332 336 341 345 347 350 352 355 352 351 348 349 349 352 349 351 349 347 346 346 349 351 354 354 352 349 353 355 353 353 355 358 3 6 8 5 6 15 12 15 8 356 339 315
304 313 322 330 330 334 339 343 346 347 350 351 349 348 347 345 350 350 350 348 347 345 345 345 347 349 350 351 355 357 359 1 360 357 1 2 1 359 5 0 356 6 10 9 7 352 345
298 308 316 323 327 329 333 339 341 342 343 343 346 346 345 344 345 348 343 352 348 348 346 346 349 348 349 351 354 356 355 355 358 358 3 359 356 358 356 358 353 355 0 4 8 359 354
292 302 310 318 323 326 328 334 338 339 338 339 339 343 343 339 338 340 337 342 344 344 342 344 348 346 349 349 350 352 350 355 352 352 351 351 349 346 344 344 340 345 355 356 3 351 351
288 295 304 313 318 322 323 330 333 338 338 335 335 335 340 336 334 335 336 338 339 340 341 341 345 348 346 347 349 347 347 345 346 341 345 346 348 341 347 346 339 344 347 344 339 341 342
285 291 299 307 313 317 319 323 330 332 333 330 330 331 332 333 330 329 330 331 332 333 337 339 339 339 340 342 341 341 337 339 339 339 343 341 335 334 330 327 331 323 329 327 331 330 331